Weather History for KCVN - July, 2013

Change the Weather History Date:

Sunday, July 7, 2013

  Actual Average Record
Temperature  
Mean Temperature 76 °F -  
Max Temperature 89 °F 92 °F 103 °F (1915)
Min Temperature 64 °F 62 °F 53 °F (1966)
Cooling Degree Days 12    
Growing Degree Days 26 (Base 50)    
Moisture  
Dew Point 52 °F    
Average Humidity 43    
Maximum Humidity 68    
Minimum Humidity 27    
Precipitation  
Precipitation 0.00 in - - ()
Sea Level Pressure  
Sea Level Pressure 30.10 in    
Wind  
Wind Speed 10 mph (South)    
Max Wind Speed 18 mph    
Max Gust Speed 26 mph    
Visibility 10 miles    
Events      
Averages and records for this station are not official NWS values.
T = Trace of Precipitation, MM = Missing Value Source: NWS Daily Summary

Daily Weather History Graph

Daily Weather History Graph

Search for Another Location

Airport or City:

Trip Planner

Search our weather history database for the weather conditions in past years. The results will help you decide how hot, cold, wet, or windy it might be!

Date:

Astronomy

Jul. 07, 2013 Rise Set
Actual Time 5:46 AM MDT 8:07 PM MDT
Civil Twilight 5:17 AM MDT 8:36 PM MDT
Nautical Twilight 4:41 AM MDT 9:12 PM MDT
Astronomical Twilight 4:02 AM MDT 9:51 PM MDT
Moon 5:21 AM MDT (7/7) 7:36 PM MDT (7/7)
Length of Visible Light 15h 19m
Length of Day
14h 21m
Waning Crescent, 0% of the Moon is Illuminated
Jul 7
Waning Crescent
Jul 8
New
Jul 15
First Quarter
Jul 22
Full
Jul 29
Last Quarter

Hourly Weather History & Observations

Time (MDT) Temp. Heat Index Dew Point Humidity Pressure Visibility Wind Dir Wind Speed Gust Speed Precip Events Conditions
12:15 AM 73.4 °F - 48.2 °F 41% 30.05 in 10.0 mi SSE 10.4 mph - N/A   Clear
12:35 AM 73.4 °F - 48.2 °F 41% 30.05 in 10.0 mi SSE 9.2 mph - N/A   Clear
12:55 AM 73.4 °F - 48.2 °F 41% 30.05 in 10.0 mi SSE 8.1 mph - N/A   Clear
1:15 AM 73.4 °F - 48.2 °F 41% 30.06 in 10.0 mi South 6.9 mph - N/A   Partly Cloudy
1:35 AM 71.6 °F - 50.0 °F 46% 30.07 in 10.0 mi SSW 6.9 mph - N/A   Scattered Clouds
1:55 AM 71.6 °F - 51.8 °F 50% 30.08 in 10.0 mi SW 4.6 mph - N/A   Partly Cloudy
2:15 AM 71.6 °F - 51.8 °F 50% 30.07 in 10.0 mi South 4.6 mph - N/A   Clear
2:35 AM 69.8 °F - 51.8 °F 53% 30.08 in 10.0 mi Calm Calm - N/A   Clear
2:55 AM 69.8 °F - 53.6 °F 56% 30.09 in 10.0 mi ESE 4.6 mph - N/A   Clear
3:15 AM 66.2 °F - 53.6 °F 64% 30.09 in 10.0 mi East 8.1 mph - N/A   Clear
3:35 AM 66.2 °F - 53.6 °F 64% 30.09 in 10.0 mi East 6.9 mph - N/A   Clear
3:55 AM 64.4 °F - 53.6 °F 68% 30.09 in 10.0 mi SE 4.6 mph - N/A   Clear
4:15 AM 64.4 °F - 53.6 °F 68% 30.09 in 10.0 mi SE 5.8 mph - N/A   Clear
4:35 AM 64.4 °F - 53.6 °F 68% 30.09 in 10.0 mi South 5.8 mph - N/A   Clear
4:55 AM 66.2 °F - 51.8 °F 60% 30.09 in 10.0 mi South 8.1 mph - N/A   Clear
5:15 AM 66.2 °F - 51.8 °F 60% 30.09 in 10.0 mi South 6.9 mph - N/A   Clear
5:35 AM 66.2 °F - 51.8 °F 60% 30.10 in 10.0 mi South 5.8 mph - N/A   Partly Cloudy
5:55 AM 66.2 °F - 51.8 °F 60% 30.10 in 10.0 mi SSW 8.1 mph - N/A   Partly Cloudy
6:15 AM 66.2 °F - 51.8 °F 60% 30.11 in 10.0 mi South 8.1 mph - N/A   Partly Cloudy
6:35 AM 66.2 °F - 51.8 °F 60% 30.11 in 10.0 mi South 8.1 mph - N/A   Scattered Clouds
6:55 AM 68.0 °F - 51.8 °F 56% 30.12 in 10.0 mi South 6.9 mph - N/A   Mostly Cloudy
7:15 AM 69.8 °F - 51.8 °F 53% 30.12 in 10.0 mi South 6.9 mph - N/A   Clear
7:35 AM 71.6 °F - 51.8 °F 50% 30.13 in 10.0 mi South 8.1 mph - N/A   Clear
7:55 AM 71.6 °F - 51.8 °F 50% 30.13 in 10.0 mi South 8.1 mph - N/A   Partly Cloudy
8:15 AM 73.4 °F - 53.6 °F 50% 30.14 in 10.0 mi South 13.8 mph - N/A   Clear
8:35 AM 75.2 °F - 53.6 °F 47% 30.14 in 10.0 mi South 17.3 mph - N/A   Clear
8:55 AM 75.2 °F - 53.6 °F 47% 30.14 in 10.0 mi South 16.1 mph - N/A   Clear
9:15 AM 77.0 °F - 53.6 °F 44% 30.14 in 10.0 mi South 15.0 mph - N/A   Clear
9:35 AM 78.8 °F - 53.6 °F 42% 30.13 in 10.0 mi South 16.1 mph 19.6 mph N/A   Clear
9:55 AM 78.8 °F - 53.6 °F 42% 30.13 in 10.0 mi South 15.0 mph - N/A   Clear
10:15 AM 78.8 °F - 53.6 °F 42% 30.13 in 10.0 mi SSW 12.7 mph - N/A   Partly Cloudy
10:35 AM 80.6 °F - 51.8 °F 37% 30.13 in 10.0 mi South 18.4 mph - N/A   Mostly Cloudy
10:55 AM 80.6 °F - 51.8 °F 37% 30.13 in 10.0 mi South 16.1 mph - N/A   Partly Cloudy
11:15 AM 80.6 °F 80.3 °F 53.6 °F 39% 30.13 in 10.0 mi South 15.0 mph - N/A   Partly Cloudy
11:35 AM 80.6 °F 80.3 °F 53.6 °F 39% 30.13 in 10.0 mi South 16.1 mph - N/A   Mostly Cloudy
11:55 AM 82.4 °F 81.7 °F 55.4 °F 39% 30.13 in 10.0 mi South 15.0 mph 20.7 mph N/A   Partly Cloudy
12:15 PM 82.4 °F 81.4 °F 53.6 °F 37% 30.13 in 10.0 mi South 16.1 mph 23.0 mph N/A   Scattered Clouds
12:35 PM 84.2 °F 83.0 °F 55.4 °F 37% 30.12 in 10.0 mi South 16.1 mph 23.0 mph N/A   Partly Cloudy
12:55 PM 84.2 °F 82.8 °F 53.6 °F 35% 30.12 in 10.0 mi South 16.1 mph 24.2 mph N/A   Clear
1:15 PM 86.0 °F 84.5 °F 55.4 °F 35% 30.11 in 10.0 mi South 18.4 mph 21.9 mph N/A   Clear
1:35 PM 86.0 °F 84.5 °F 55.4 °F 35% 30.11 in 10.0 mi South 15.0 mph 26.5 mph N/A   Clear
1:55 PM 87.8 °F 86.1 °F 55.4 °F 33% 30.10 in 10.0 mi SSW 11.5 mph 21.9 mph N/A   Clear
2:15 PM 87.8 °F 86.1 °F 55.4 °F 33% 30.09 in 10.0 mi South 16.1 mph 20.7 mph N/A   Clear
2:35 PM 89.6 °F 87.3 °F 53.6 °F 29% 30.09 in 10.0 mi South 15.0 mph 20.7 mph N/A   Clear
2:55 PM 89.6 °F 87.3 °F 53.6 °F 29% 30.09 in 10.0 mi SSE 16.1 mph 23.0 mph N/A   Partly Cloudy
3:15 PM 89.6 °F 87.3 °F 53.6 °F 29% 30.08 in 10.0 mi South 13.8 mph 20.7 mph N/A   Mostly Cloudy
3:35 PM 89.6 °F 87.3 °F 53.6 °F 29% 30.07 in 10.0 mi SSE 12.7 mph 21.9 mph N/A   Scattered Clouds
3:55 PM 89.6 °F 87.3 °F 53.6 °F 29% 30.07 in 10.0 mi SSE 15.0 mph 20.7 mph N/A   Clear
4:15 PM 89.6 °F 87.3 °F 53.6 °F 29% 30.07 in 10.0 mi South 17.3 mph - N/A   Clear
4:35 PM 87.8 °F - 51.8 °F 29% 30.07 in 10.0 mi SSE 13.8 mph 23.0 mph N/A   Clear
4:55 PM 89.6 °F - 51.8 °F 27% 30.07 in 10.0 mi South 13.8 mph - N/A   Clear
5:15 PM 89.6 °F - 51.8 °F 27% 30.07 in 10.0 mi SSE 15.0 mph - N/A   Clear
5:35 PM 89.6 °F - 51.8 °F 27% 30.06 in 10.0 mi South 18.4 mph 23.0 mph N/A   Clear
5:55 PM 87.8 °F - 51.8 °F 29% 30.06 in 10.0 mi South 17.3 mph - N/A   Clear
6:15 PM 87.8 °F - 51.8 °F 29% 30.06 in 10.0 mi SSE 16.1 mph 21.9 mph N/A   Clear
6:35 PM 87.8 °F - 51.8 °F 29% 30.07 in 10.0 mi SSE 12.7 mph 20.7 mph N/A   Clear
6:55 PM 86.0 °F - 50.0 °F 29% 30.07 in 10.0 mi SSE 16.1 mph - N/A   Clear
7:15 PM 84.2 °F - 50.0 °F 30% 30.08 in 10.0 mi SSE 15.0 mph 18.4 mph N/A   Clear
7:35 PM 82.4 °F - 48.2 °F 30% 30.09 in 10.0 mi SSE 10.4 mph - N/A   Clear
7:55 PM 82.4 °F - 50.0 °F 32% 30.10 in 10.0 mi SSE 9.2 mph - N/A   Clear
8:15 PM 80.6 °F - 51.8 °F 37% 30.10 in 10.0 mi SSE 9.2 mph - N/A   Clear
8:35 PM 78.8 °F - 51.8 °F 39% 30.10 in 10.0 mi SSE 9.2 mph - N/A   Clear
8:55 PM 77.0 °F - 51.8 °F 41% 30.11 in 10.0 mi SSE 9.2 mph - N/A   Clear
9:15 PM 77.0 °F - 51.8 °F 41% 30.11 in 10.0 mi SSE 9.2 mph - N/A   Clear
9:35 PM 75.2 °F - 51.8 °F 44% 30.13 in 10.0 mi SSE 10.4 mph - N/A   Clear
9:55 PM 77.0 °F - 51.8 °F 41% 30.13 in 10.0 mi SSE 13.8 mph - N/A   Clear
10:15 PM 75.2 °F - 51.8 °F 44% 30.14 in 10.0 mi SSE 12.7 mph - N/A   Clear
10:35 PM 75.2 °F - 51.8 °F 44% 30.15 in 10.0 mi SSE 10.4 mph - N/A   Clear
10:55 PM 75.2 °F - 50.0 °F 41% 30.16 in 10.0 mi SSE 10.4 mph - N/A   Clear
11:15 PM 73.4 °F - 51.8 °F 47% 30.15 in 10.0 mi SSE 10.4 mph - N/A   Clear
11:35 PM 73.4 °F - 51.8 °F 47% 30.16 in 10.0 mi SSE 9.2 mph - N/A   Clear
11:55 PM 73.4 °F - 51.8 °F 47% 30.16 in 10.0 mi SSE 9.2 mph - N/A   Clear